Location: Bishausen
(51.6334°N, 9.9631°E)
Time: 09:59:22
(UTC+00:00)

CZ-2C R/B - Pass Details

Date: 23 May 2024
Orbit: 703 x 904 km, 98.2° (Epoch: 18 June)

Event Time Altitude Azimuth Distance (km) Brightness Sun altitude
Rises 01:34:23 0° 15° (NNE) 3,538 8.0 -11.7°
Reaches altitude 10° 01:36:49 10° 17° (NNE) 2,597 7.1 -11.5°
Maximum altitude 01:42:40 73° 103° (ESE) 945 3.5 -11.0°
Drops below altitude 10° 01:48:22 10° 188° (S) 2,543 5.2 -10.5°
Enters shadow 01:48:29 10° 188° (S) 2,584 5.2 -10.5°
